Simultaneous Nadir Overpasses (SNOs) Predictions

Prediction of SNOs between METOP-A and NOAA-19 Satellite Orbit:

Table of predicted SNOs for the next 14.0 days since TLE Epoch: 6/8/2012
Index Date (METOP-A) Time (METOP-A) METOP-A Lat,Lon Date (NOAA-19) Time (NOAA-19) NOAA-19 Lat,Lon Distance(km) Time Diff (sec)
1 06/15/2012 08:27:31 -73.68,-132.96 06/15/2012 08:26:23 -73.73,-135.58 82.05 68
2 06/15/2012 09:18:21 73.14, 33.16 06/15/2012 09:17:10 73.13, 33.08 3.01 71
3 06/15/2012 10:09:04 -73.11,-159.59 06/15/2012 10:08:15 -73.08,-159.60 3.35 49
4 06/15/2012 10:59:44 73.07, 7.66 06/15/2012 10:59:14 73.06, 7.70 1.43 30
5 06/15/2012 11:50:27 -73.04, 174.92 06/15/2012 11:50:20 -73.07, 174.91 3.30 7
6 06/15/2012 12:41:06 73.05, -17.73 06/15/2012 12:41:19 73.05, -17.80 2.19 13
7 06/15/2012 13:31:49 -73.02, 149.53 06/15/2012 13:32:24 -73.01, 149.53 1.17 35
8 06/15/2012 14:22:29 72.97, -43.23 06/15/2012 14:23:23 72.99, -43.18 2.31 54
9 06/15/2012 15:13:13 -72.89, 123.93 06/15/2012 15:14:27 -72.89, 124.25 10.58 74




NCC Satellite Simultaneous Nadir Overpasses (SNOs) Prediction Service
